Regional Weather Roundup
Issued by NWS Northern Indiana

Home | Current Version | Previous Version | Graphics & Text | Print | Product List | Glossary On
Versions: 1 2 3 4 5 6 7 8 9 10 11 12 13 14 15 16 17 18 19 20 21 22 23 24 25 26 27 28 29 30 31 32 33 34 35 36 37 38 39 40 41 42 43 44 45 46 47 48 49 50
000
ASUS43 KIWX 241700
RWRIWX

KIWX WEATHER ROUNDUP
NATIONAL WEATHER SERVICE NORTHERN INDIANA
100 PM EDT FRI OCT 24 2014

NOTE: "FAIR" INDICATES FEW OR NO CLOUDS BELOW 12,000 FEET WITH NO
SIGNIFICANT WEATHER AND/OR OBSTRUCTIONS TO VISIBILITY.

* THESE STATIONS ARE NOT UNDER NWS QUALITY CONTROL. THEY ALSO MAY NOT
  REPORT WEATHER SUCH AS PRECIPITATION OR FOG.

INZ001>027-241800-
NORTHERN INDIANA

CITY           SKY/WX    TMP DP  RH WIND       PRES   REMARKS
GARY*          PTSUNNY   63  50  63 S7        30.05F
SOUTH BEND     SUNNY     61  48  62 S7        30.07F
ELKHART*       PTSUNNY   59  46  63 SE6       30.06F
GOSHEN         CLOUDY    56  49  77 S5        30.07F
ANGOLA*          N/A     55  46  71 W3        30.07S
FORT WAYNE     PTSUNNY   56  46  69 SW6       30.08F

$$
INZ028>050-241800-
CENTRAL INDIANA

CITY           SKY/WX    TMP DP  RH WIND       PRES   REMARKS
LAFAYETTE      SUNNY     61  50  67 SW9       30.07F
KOKOMO*        CLOUDY    61  48  63 SW6       30.09S
MUNCIE*        SUNNY     61  43  51 SW6       30.08F
INDIANAPOLIS   CLOUDY    55  47  74 S3        30.10S

$$
MIZ043>046-050>051-056>058-064>065-071>073-077>080-241800-
SOUTHWEST LOWER MICHIGAN

CITY           SKY/WX    TMP DP  RH WIND       PRES   REMARKS
BATTLE CREEK   CLOUDY    58  47  66 S6        30.06F
BENTON HARBOR  MOSUNNY   58  49  72 W8        30.05F
COLDWATER*     CLOUDY    56  48  72 CALM      30.06F
HILLSDALE*     CLOUDY    55  46  72 W6        30.07S
HOLLAND        PTSUNNY   60  51  72 W6        30.04F
GRAND RAPIDS   MOSUNNY   61  50  67 W8        30.03F
KALAMAZOO      CLOUDY    57  47  69 S7        30.06F
STURGIS*       CLOUDY    54  48  82 CALM      30.06F
THREE RIVERS*  CLOUDY    58  48  71 S5        30.06F

$$
OHZ001>008-015>018-024>025-241800-
NORTHWEST OHIO

CITY           SKY/WX    TMP DP  RH WIND       PRES   REMARKS
DEFIANCE       CLOUDY    57  45  64 W6        30.08F
FINDLAY        CLOUDY    60  42  51 W6        30.07F
TOLEDO EXPRESS PTSUNNY   60  42  51 SW7       30.06F
TOLEDO METCALF SUNNY     60  42  51 SW6       30.06F
LIMA           SUNNY     60  44  55 S8        30.08F

$$
AND FOR LAKE MICHIGAN COASTAL AND OPEN LAKE BUOY OBSERVATIONS

STATION/POSITION TEMP    WIND        PRES    VSBY  WAVE
                 AIR SEA DIR/SP/G                  HT/PER
                 (F)     (DEG/KT/KT) (MB)    (MI)  (FT/S)
CALUMET HARBOR    60     210/  2/  5 1016.5F
MICHIGAN CITY     56     260/  6/  7   N/A
SAINT JOSEPH      56                 1018.3F
SOUTH LAKE BUOY   52 54  250/  8/  8 1017.8F         1
MICHIGAN CITY CG     57                N/A    3 1/2  2

$$
&&



USA.gov is the U.S. government's official web portal to all federal, state and local government web resources and services.